Time,TemperatureF,DewpointF,PressureIn,WindDirection,WindDirectionDegrees,WindSpeedMPH,WindSpeedGustMPH,Humidity,HourlyPrecipIn,Conditions,Clouds,dailyrainin,SoftwareType,DateUTC
2013-03-20 00:00:00,17.3,7.5,29.92,WSW,248,7.4,13.4,65,0.00,,,0.00,WUHU216HW,2013-03-20 05:00:00,
2013-03-20 00:05:00,17.1,7.3,29.92,WSW,248,11.0,15.7,65,0.00,,,0.00,WUHU216HW,2013-03-20 05:05:00,
2013-03-20 00:10:00,16.9,7.1,29.91,West,270,11.6,15.7,65,0.00,,,0.00,WUHU216HW,2013-03-20 05:10:00,
2013-03-20 00:15:00,16.9,7.1,29.91,West,270,8.3,13.4,65,0.00,,,0.00,WUHU216HW,2013-03-20 05:15:00,
2013-03-20 00:20:00,16.7,6.9,29.92,West,270,6.5,13.4,65,0.00,,,0.00,WUHU216HW,2013-03-20 05:20:00,
2013-03-20 00:25:00,16.6,6.8,29.91,WSW,248,13.4,14.1,65,0.00,,,0.00,WUHU216HW,2013-03-20 05:25:00,
2013-03-20 00:30:00,16.6,6.4,29.91,West,270,11.9,14.1,64,0.00,,,0.00,WUHU216HW,2013-03-20 05:30:00,
2013-03-20 00:35:00,16.4,6.2,29.91,West,270,13.9,15.2,64,0.00,,,0.00,WUHU216HW,2013-03-20 05:35:00,
2013-03-20 00:40:00,16.2,6.0,29.91,NW,315,9.8,15.2,64,0.00,,,0.00,WUHU216HW,2013-03-20 05:40:00,
2013-03-20 00:45:00,16.0,5.9,29.92,West,270,10.1,13.9,64,0.00,,,0.00,WUHU216HW,2013-03-20 05:45:00,
2013-03-20 00:50:00,15.8,5.7,29.92,WNW,293,6.3,12.3,64,0.00,,,0.00,WUHU216HW,2013-03-20 05:50:00,
2013-03-20 00:55:00,15.7,5.5,29.92,WNW,293,14.3,14.3,64,0.00,,,0.00,WUHU216HW,2013-03-20 05:55:00,
2013-03-20 01:00:00,15.5,5.4,29.91,West,270,6.9,14.3,64,0.00,,,0.00,WUHU216HW,2013-03-20 06:00:00,
2013-03-20 01:05:00,15.5,5.4,29.91,WSW,248,8.9,14.3,64,0.00,,,0.00,WUHU216HW,2013-03-20 06:05:00,
2013-03-20 01:10:00,15.3,5.6,29.92,West,270,11.2,12.1,65,0.00,,,0.00,WUHU216HW,2013-03-20 06:10:00,
2013-03-20 01:15:00,15.3,5.6,29.91,WSW,248,11.4,14.5,65,0.00,,,0.00,WUHU216HW,2013-03-20 06:15:00,
2013-03-20 01:20:00,15.1,5.4,29.91,WNW,293,8.1,16.1,65,0.00,,,0.00,WUHU216HW,2013-03-20 06:20:00,
2013-03-20 01:25:00,15.1,5.4,29.91,NW,315,8.1,16.1,65,0.00,,,0.00,WUHU216HW,2013-03-20 06:25:00,
2013-03-20 01:30:00,14.8,5.0,29.91,WSW,248,10.7,15.7,65,0.00,,,0.00,WUHU216HW,2013-03-20 06:30:00,
2013-03-20 01:35:00,14.8,5.0,29.91,WNW,293,6.9,12.1,65,0.00,,,0.00,WUHU216HW,2013-03-20 06:35:00,
2013-03-20 01:40:00,14.6,4.9,29.91,West,270,10.3,13.4,65,0.00,,,0.00,WUHU216HW,2013-03-20 06:40:00,
2013-03-20 01:45:00,14.4,4.8,29.91,WNW,293,8.7,13.4,65,0.00,,,0.00,WUHU216HW,2013-03-20 06:45:00,
2013-03-20 01:50:00,14.2,4.6,29.92,West,270,10.5,12.3,65,0.00,,,0.00,WUHU216HW,2013-03-20 06:50:00,
2013-03-20 01:55:00,14.2,5.0,29.92,West,270,10.1,12.1,66,0.00,,,0.00,WUHU216HW,2013-03-20 06:55:00,
2013-03-20 02:00:00,14.0,4.8,29.92,West,270,8.1,12.1,66,0.00,,,0.00,WUHU216HW,2013-03-20 07:00:00,
2013-03-20 02:05:00,13.9,4.6,29.92,West,270,8.9,12.1,66,0.00,,,0.00,WUHU216HW,2013-03-20 07:05:00,
2013-03-20 02:10:00,13.9,4.6,29.92,WSW,248,9.8,12.5,66,0.00,,,0.00,WUHU216HW,2013-03-20 07:10:00,
2013-03-20 02:15:00,13.7,4.8,29.92,NW,315,6.9,12.5,67,0.00,,,0.00,WUHU216HW,2013-03-20 07:15:00,
2013-03-20 02:20:00,13.5,4.6,29.92,West,270,11.9,12.8,67,0.00,,,0.00,WUHU216HW,2013-03-20 07:20:00,
2013-03-20 02:25:00,13.3,4.4,29.92,West,270,8.3,12.8,67,0.00,,,0.00,WUHU216HW,2013-03-20 07:25:00,
2013-03-20 02:30:00,13.3,4.4,29.92,NW,315,11.4,11.9,67,0.00,,,0.00,WUHU216HW,2013-03-20 07:30:00,
2013-03-20 02:35:00,13.1,4.2,29.92,WNW,293,11.9,12.1,67,0.00,,,0.00,WUHU216HW,2013-03-20 07:35:00,
2013-03-20 02:40:00,13.0,4.1,29.92,WNW,293,6.7,12.1,67,0.00,,,0.00,WUHU216HW,2013-03-20 07:40:00,
2013-03-20 02:45:00,12.8,3.9,29.92,West,270,7.8,12.8,67,0.00,,,0.00,WUHU216HW,2013-03-20 07:45:00,
2013-03-20 02:50:00,12.8,3.9,29.92,West,270,10.3,12.8,67,0.00,,,0.00,WUHU216HW,2013-03-20 07:50:00,
2013-03-20 02:55:00,12.6,3.7,29.91,WSW,248,7.8,12.3,67,0.00,,,0.00,WUHU216HW,2013-03-20 07:55:00,
2013-03-20 03:00:00,12.4,3.5,29.91,WNW,293,6.3,12.1,67,0.00,,,0.00,WUHU216HW,2013-03-20 08:00:00,
2013-03-20 03:05:00,12.2,3.3,29.91,WSW,248,8.7,12.8,67,0.00,,,0.00,WUHU216HW,2013-03-20 08:05:00,
2013-03-20 03:10:00,12.2,3.6,29.92,West,270,8.3,13.9,68,0.00,,,0.00,WUHU216HW,2013-03-20 08:10:00,
2013-03-20 03:15:00,11.9,3.0,29.92,SSW,203,6.3,13.9,67,0.00,,,0.00,WUHU216HW,2013-03-20 08:15:00,
2013-03-20 03:20:00,11.9,3.0,29.92,NNW,338,12.1,12.1,67,0.00,,,0.00,WUHU216HW,2013-03-20 08:20:00,
2013-03-20 03:25:00,11.7,2.8,29.92,West,270,10.5,12.1,67,0.00,,,0.00,WUHU216HW,2013-03-20 08:25:00,
2013-03-20 03:30:00,11.7,2.8,29.92,West,270,5.1,14.1,67,0.00,,,0.00,WUHU216HW,2013-03-20 08:30:00,
2013-03-20 03:35:00,11.5,2.6,29.92,WSW,248,6.9,14.1,67,0.00,,,0.00,WUHU216HW,2013-03-20 08:35:00,
2013-03-20 03:40:00,11.5,2.6,29.92,West,270,11.2,13.2,67,0.00,,,0.00,WUHU216HW,2013-03-20 08:40:00,
2013-03-20 03:45:00,11.3,2.4,29.92,West,270,8.5,13.9,67,0.00,,,0.00,WUHU216HW,2013-03-20 08:45:00,
2013-03-20 03:50:00,11.3,2.4,29.92,WSW,248,9.8,13.9,67,0.00,,,0.00,WUHU216HW,2013-03-20 08:50:00,
2013-03-20 03:55:00,11.2,2.3,29.92,WNW,293,8.5,11.9,67,0.00,,,0.00,WUHU216HW,2013-03-20 08:55:00,
2013-03-20 04:00:00,11.0,2.1,29.92,WSW,248,7.6,11.9,67,0.00,,,0.00,WUHU216HW,2013-03-20 09:00:00,
2013-03-20 04:05:00,10.8,1.9,29.92,West,270,12.8,13.6,67,0.00,,,0.00,WUHU216HW,2013-03-20 09:05:00,
2013-03-20 04:10:00,10.8,1.9,29.92,WNW,293,6.3,13.6,67,0.00,,,0.00,WUHU216HW,2013-03-20 09:10:00,
2013-03-20 04:15:00,10.6,1.7,29.92,WNW,293,8.1,11.6,67,0.00,,,0.00,WUHU216HW,2013-03-20 09:15:00,
2013-03-20 04:20:00,10.4,1.5,29.92,WNW,293,7.2,11.4,67,0.00,,,0.00,WUHU216HW,2013-03-20 09:20:00,
2013-03-20 04:25:00,10.4,1.5,29.92,WNW,293,9.4,10.5,67,0.00,,,0.00,WUHU216HW,2013-03-20 09:25:00,
2013-03-20 04:30:00,10.4,1.5,29.92,WNW,293,8.7,11.4,67,0.00,,,0.00,WUHU216HW,2013-03-20 09:30:00,
2013-03-20 04:35:00,10.3,1.4,29.91,WSW,248,11.9,12.1,67,0.00,,,0.00,WUHU216HW,2013-03-20 09:35:00,
2013-03-20 04:40:00,10.3,1.4,29.91,NW,315,6.3,12.1,67,0.00,,,0.00,WUHU216HW,2013-03-20 09:40:00,
2013-03-20 04:45:00,10.3,1.4,29.91,NW,315,6.5,12.1,67,0.00,,,0.00,WUHU216HW,2013-03-20 09:45:00,
2013-03-20 04:50:00,10.1,1.2,29.91,West,270,7.2,11.4,67,0.00,,,0.00,WUHU216HW,2013-03-20 09:50:00,
2013-03-20 04:55:00,9.7,0.9,29.91,West,270,8.1,11.0,67,0.00,,,0.00,WUHU216HW,2013-03-20 09:55:00,
2013-03-20 05:00:00,9.7,0.9,29.91,WNW,293,5.4,11.0,67,0.00,,,0.00,WUHU216HW,2013-03-20 10:00:00,
2013-03-20 05:05:00,9.7,1.2,29.91,West,270,6.3,11.0,68,0.00,,,0.00,WUHU216HW,2013-03-20 10:05:00,
2013-03-20 05:10:00,9.7,1.2,29.91,West,270,6.7,13.2,68,0.00,,,0.00,WUHU216HW,2013-03-20 10:10:00,
2013-03-20 05:15:00,9.5,0.7,29.91,NW,315,7.6,13.2,67,0.00,,,0.00,WUHU216HW,2013-03-20 10:15:00,
2013-03-20 05:20:00,9.5,0.7,29.91,WNW,293,13.0,13.9,67,0.00,,,0.00,WUHU216HW,2013-03-20 10:20:00,
2013-03-20 05:25:00,9.5,0.7,29.91,WNW,293,8.9,13.9,67,0.00,,,0.00,WUHU216HW,2013-03-20 10:25:00,
2013-03-20 05:30:00,9.4,0.5,29.91,West,270,8.5,13.0,67,0.00,,,0.00,WUHU216HW,2013-03-20 10:30:00,
2013-03-20 05:35:00,9.4,0.2,29.91,West,270,5.6,12.1,66,0.00,,,0.00,WUHU216HW,2013-03-20 10:35:00,
2013-03-20 05:40:00,9.4,0.2,29.91,West,270,10.1,11.9,66,0.00,,,0.00,WUHU216HW,2013-03-20 10:40:00,
2013-03-20 05:45:00,9.4,0.2,29.91,WNW,293,11.4,12.1,66,0.00,,,0.00,WUHU216HW,2013-03-20 10:45:00,
2013-03-20 05:50:00,9.2,0.0,29.91,NW,315,7.6,13.4,66,0.00,,,0.00,WUHU216HW,2013-03-20 10:50:00,
2013-03-20 05:55:00,9.2,0.0,29.91,NW,315,7.6,14.1,66,0.00,,,0.00,WUHU216HW,2013-03-20 10:55:00,
2013-03-20 06:00:00,9.0,-0.1,29.92,WSW,248,8.9,14.1,66,0.00,,,0.00,WUHU216HW,2013-03-20 11:00:00,
2013-03-20 06:05:00,9.0,-0.1,29.92,West,270,3.4,12.5,66,0.00,,,0.00,WUHU216HW,2013-03-20 11:05:00,
2013-03-20 06:10:00,9.0,-0.1,29.92,West,270,9.4,14.5,66,0.00,,,0.00,WUHU216HW,2013-03-20 11:10:00,
2013-03-20 06:15:00,9.0,-0.1,29.92,West,270,5.4,14.5,66,0.00,,,0.00,WUHU216HW,2013-03-20 11:15:00,
2013-03-20 06:20:00,8.8,-0.3,29.92,NW,315,9.6,11.9,66,0.00,,,0.00,WUHU216HW,2013-03-20 11:20:00,
2013-03-20 06:25:00,8.6,-0.4,29.92,WNW,293,6.0,13.6,66,0.00,,,0.00,WUHU216HW,2013-03-20 11:25:00,
2013-03-20 06:30:00,8.6,-0.4,29.93,WNW,293,7.8,13.6,66,0.00,,,0.00,WUHU216HW,2013-03-20 11:30:00,
2013-03-20 06:35:00,8.6,-0.4,29.93,West,270,7.6,12.3,66,0.00,,,0.00,WUHU216HW,2013-03-20 11:35:00,
2013-03-20 06:40:00,8.5,-0.6,29.93,WNW,293,8.7,12.3,66,0.00,,,0.00,WUHU216HW,2013-03-20 11:40:00,
2013-03-20 06:45:00,8.5,-1.0,29.94,NW,315,8.7,12.3,65,0.00,,,0.00,WUHU216HW,2013-03-20 11:45:00,
2013-03-20 06:50:00,8.3,-1.2,29.94,NNW,338,11.0,12.3,65,0.00,,,0.00,WUHU216HW,2013-03-20 11:50:00,
2013-03-20 06:55:00,8.3,-1.2,29.94,SW,225,6.7,13.0,65,0.00,,,0.00,WUHU216HW,2013-03-20 11:55:00,
2013-03-20 07:00:00,8.3,-1.2,29.94,NW,315,5.6,13.0,65,0.00,,,0.00,WUHU216HW,2013-03-20 12:00:00,
2013-03-20 07:05:00,8.3,-0.8,29.94,NW,315,4.7,12.8,66,0.00,,,0.00,WUHU216HW,2013-03-20 12:05:00,
2013-03-20 07:10:00,8.3,-0.8,29.94,WNW,293,3.6,10.5,66,0.00,,,0.00,WUHU216HW,2013-03-20 12:10:00,
2013-03-20 07:15:00,8.1,-1.0,29.94,WSW,248,6.3,9.8,66,0.00,,,0.00,WUHU216HW,2013-03-20 12:15:00,
2013-03-20 07:20:00,7.9,-1.5,29.94,West,270,6.9,8.9,65,0.00,,,0.00,WUHU216HW,2013-03-20 12:20:00,
2013-03-20 07:25:00,8.1,-1.3,29.95,WNW,293,9.2,9.2,65,0.00,,,0.00,WUHU216HW,2013-03-20 12:25:00,
2013-03-20 07:30:00,8.3,-1.2,29.95,WNW,293,8.7,9.6,65,0.00,,,0.00,WUHU216HW,2013-03-20 12:30:00,
2013-03-20 07:35:00,8.3,-1.5,29.95,NNW,338,12.3,12.5,64,0.00,,,0.00,WUHU216HW,2013-03-20 12:35:00,
2013-03-20 07:40:00,8.5,-1.3,29.95,NW,315,8.5,12.5,64,0.00,,,0.00,WUHU216HW,2013-03-20 12:40:00,
2013-03-20 07:45:00,8.6,-1.2,29.95,NW,315,8.5,12.3,64,0.00,,,0.00,WUHU216HW,2013-03-20 12:45:00,
2013-03-20 07:50:00,8.6,-1.2,29.95,NW,315,3.1,12.1,64,0.00,,,0.00,WUHU216HW,2013-03-20 12:50:00,
2013-03-20 07:55:00,8.8,-1.0,29.94,WNW,293,9.2,12.1,64,0.00,,,0.00,WUHU216HW,2013-03-20 12:55:00,
2013-03-20 08:00:00,9.0,-0.8,29.95,West,270,8.5,11.4,64,0.00,,,0.00,WUHU216HW,2013-03-20 13:00:00,
2013-03-20 08:05:00,9.0,-0.8,29.94,NW,315,8.3,11.4,64,0.00,,,0.00,WUHU216HW,2013-03-20 13:05:00,
2013-03-20 08:10:00,9.0,-1.2,29.94,West,270,8.1,12.5,63,0.00,,,0.00,WUHU216HW,2013-03-20 13:10:00,
2013-03-20 08:15:00,9.2,-1.0,29.94,WNW,293,4.9,12.5,63,0.00,,,0.00,WUHU216HW,2013-03-20 13:15:00,
2013-03-20 08:20:00,9.4,-0.8,29.94,West,270,13.0,13.0,63,0.00,,,0.00,WUHU216HW,2013-03-20 13:20:00,
2013-03-20 08:25:00,9.4,-1.2,29.94,WSW,248,9.8,15.7,62,0.00,,,0.00,WUHU216HW,2013-03-20 13:25:00,
2013-03-20 08:30:00,9.4,-1.2,29.94,NW,315,7.2,18.1,62,0.00,,,0.00,WUHU216HW,2013-03-20 13:30:00,
2013-03-20 08:35:00,9.5,-0.6,29.94,WNW,293,6.9,18.1,63,0.00,,,0.00,WUHU216HW,2013-03-20 13:35:00,
2013-03-20 08:40:00,9.7,-0.8,29.94,West,270,7.6,15.7,62,0.00,,,0.00,WUHU216HW,2013-03-20 13:40:00,
2013-03-20 08:45:00,9.7,-0.8,29.94,West,270,6.9,15.7,62,0.00,,,0.00,WUHU216HW,2013-03-20 13:45:00,
2013-03-20 08:50:00,9.9,-0.9,29.94,West,270,8.5,16.8,61,0.00,,,0.00,WUHU216HW,2013-03-20 13:50:00,
2013-03-20 08:55:00,10.1,-0.7,29.94,West,270,12.8,17.0,61,0.00,,,0.00,WUHU216HW,2013-03-20 13:55:00,
2013-03-20 09:00:00,10.3,-0.5,29.94,NW,315,8.9,17.0,61,0.00,,,0.00,WUHU216HW,2013-03-20 14:00:00,
2013-03-20 09:04:00,10.4,-0.3,29.94,West,270,7.4,13.4,61,0.00,,,0.00,WUHU216HW,2013-03-20 14:04:00,
2013-03-20 09:09:00,10.8,-0.3,29.94,West,270,7.4,11.2,60,0.00,,,0.00,WUHU216HW,2013-03-20 14:09:00,
2013-03-20 09:14:00,11.0,-0.3,29.94,WNW,293,5.4,15.7,60,0.00,,,0.00,WUHU216HW,2013-03-20 14:14:00,
2013-03-20 09:19:00,11.2,-0.1,29.94,WNW,293,13.2,15.7,60,0.00,,,0.00,WUHU216HW,2013-03-20 14:19:00,
2013-03-20 09:24:00,11.0,-0.3,29.94,WNW,293,12.3,15.0,60,0.00,,,0.00,WUHU216HW,2013-03-20 14:24:00,
2013-03-20 09:29:00,11.2,-0.1,29.94,NNW,338,10.1,14.1,60,0.00,,,0.00,WUHU216HW,2013-03-20 14:29:00,
2013-03-20 09:35:00,11.2,-0.1,29.94,West,270,7.8,14.8,60,0.00,,,0.00,WUHU216HW,2013-03-20 14:35:00,
2013-03-20 09:40:00,11.3,0.1,29.94,WNW,293,9.4,16.1,60,0.00,,,0.00,WUHU216HW,2013-03-20 14:40:00,
2013-03-20 09:44:00,11.3,0.1,29.94,NNW,338,10.5,17.2,60,0.00,,,0.00,WUHU216HW,2013-03-20 14:44:00,
2013-03-20 09:49:00,11.7,0.5,29.94,WNW,293,10.3,17.2,60,0.00,,,0.00,WUHU216HW,2013-03-20 14:49:00,
2013-03-20 09:54:00,11.9,0.5,29.94,WSW,248,9.8,16.3,60,0.00,,,0.00,WUHU216HW,2013-03-20 14:54:00,
2013-03-20 09:59:00,12.1,0.7,29.94,West,270,8.5,15.0,60,0.00,,,0.00,WUHU216HW,2013-03-20 14:59:00,
2013-03-20 10:04:00,11.9,0.5,29.94,NW,315,7.6,15.4,60,0.00,,,0.00,WUHU216HW,2013-03-20 15:04:00,
2013-03-20 10:09:00,12.1,0.7,29.94,NW,315,10.3,17.7,60,0.00,,,0.00,WUHU216HW,2013-03-20 15:09:00,
2013-03-20 10:14:00,12.1,0.7,29.94,West,270,10.7,17.7,60,0.00,,,0.00,WUHU216HW,2013-03-20 15:14:00,
2013-03-20 10:19:00,12.4,1.1,29.94,WNW,293,11.0,17.2,60,0.00,,,0.00,WUHU216HW,2013-03-20 15:19:00,
2013-03-20 10:24:00,12.2,0.9,29.94,WNW,293,6.7,16.3,60,0.00,,,0.00,WUHU216HW,2013-03-20 15:24:00,
2013-03-20 10:29:00,12.8,1.4,29.94,West,270,11.2,16.3,60,0.00,,,0.00,WUHU216HW,2013-03-20 15:29:00,
2013-03-20 10:34:00,13.3,2.0,29.94,NW,315,9.8,13.2,60,0.00,,,0.00,WUHU216HW,2013-03-20 15:34:00,
2013-03-20 10:39:00,13.3,1.6,29.94,NNW,338,13.9,13.9,59,0.00,,,0.00,WUHU216HW,2013-03-20 15:39:00,
2013-03-20 10:44:00,13.3,2.0,29.93,WSW,248,15.7,15.7,60,0.00,,,0.00,WUHU216HW,2013-03-20 15:44:00,
2013-03-20 10:49:00,13.7,2.3,29.93,SW,225,9.2,15.7,60,0.00,,,0.00,WUHU216HW,2013-03-20 15:49:00,
2013-03-20 10:54:00,14.0,2.7,29.94,WSW,248,7.6,15.7,60,0.00,,,0.00,WUHU216HW,2013-03-20 15:54:00,
2013-03-20 10:59:00,14.4,2.6,29.93,West,270,7.6,16.3,59,0.00,,,0.00,WUHU216HW,2013-03-20 15:59:00,
2013-03-20 11:04:00,14.2,2.4,29.93,West,270,10.3,16.6,59,0.00,,,0.00,WUHU216HW,2013-03-20 16:04:00,
2013-03-20 11:09:00,14.4,2.6,29.94,WSW,248,12.8,16.6,59,0.00,,,0.00,WUHU216HW,2013-03-20 16:09:00,
2013-03-20 11:14:00,14.4,2.6,29.93,WSW,248,10.7,15.9,59,0.00,,,0.00,WUHU216HW,2013-03-20 16:14:00,
2013-03-20 11:19:00,14.8,3.0,29.94,WNW,293,12.8,15.9,59,0.00,,,0.00,WUHU216HW,2013-03-20 16:19:00,
2013-03-20 11:24:00,15.1,3.3,29.94,West,270,12.3,13.9,59,0.00,,,0.00,WUHU216HW,2013-03-20 16:24:00,
2013-03-20 11:29:00,14.9,2.7,29.94,NNW,338,11.4,15.0,58,0.00,,,0.00,WUHU216HW,2013-03-20 16:29:00,
2013-03-20 11:34:00,15.1,3.7,29.94,West,270,4.0,15.9,60,0.00,,,0.00,WUHU216HW,2013-03-20 16:34:00,
2013-03-20 11:39:00,15.8,4.3,29.94,WNW,293,8.5,15.9,60,0.00,,,0.00,WUHU216HW,2013-03-20 16:39:00,
2013-03-20 11:44:00,16.0,3.8,29.94,WNW,293,6.5,15.9,58,0.00,,,0.00,WUHU216HW,2013-03-20 16:44:00,
2013-03-20 11:49:00,15.8,3.6,29.93,West,270,12.8,16.6,58,0.00,,,0.00,WUHU216HW,2013-03-20 16:49:00,
2013-03-20 11:54:00,16.0,4.2,29.93,West,270,10.7,16.6,59,0.00,,,0.00,WUHU216HW,2013-03-20 16:54:00,
2013-03-20 11:59:00,16.4,3.7,29.93,WSW,248,14.1,15.7,57,0.00,,,0.00,WUHU216HW,2013-03-20 16:59:00,
2013-03-20 12:04:00,16.6,4.7,29.93,West,270,7.6,15.7,59,0.00,,,0.00,WUHU216HW,2013-03-20 17:04:00,
2013-03-20 12:09:00,17.3,4.6,29.93,WNW,293,17.9,17.9,57,0.00,,,0.00,WUHU216HW,2013-03-20 17:09:00,
2013-03-20 12:14:00,17.1,4.4,29.93,West,270,10.1,17.9,57,0.00,,,0.00,WUHU216HW,2013-03-20 17:14:00,
2013-03-20 12:19:00,17.1,4.4,29.93,West,270,7.6,17.9,57,0.00,,,0.00,WUHU216HW,2013-03-20 17:19:00,
2013-03-20 12:24:00,17.5,4.8,29.93,NW,315,12.1,17.4,57,0.00,,,0.00,WUHU216HW,2013-03-20 17:24:00,
2013-03-20 12:29:00,17.5,4.8,29.93,WSW,248,13.4,17.4,57,0.00,,,0.00,WUHU216HW,2013-03-20 17:29:00,
2013-03-20 12:34:00,17.8,4.7,29.92,WNW,293,12.1,18.3,56,0.00,,,0.00,WUHU216HW,2013-03-20 17:34:00,
2013-03-20 12:39:00,17.5,4.8,29.92,West,270,8.7,18.3,57,0.00,,,0.00,WUHU216HW,2013-03-20 17:39:00,
2013-03-20 12:44:00,18.0,5.7,29.92,West,270,4.7,15.0,58,0.00,,,0.00,WUHU216HW,2013-03-20 17:44:00,
2013-03-20 12:49:00,18.7,5.5,29.92,West,270,11.2,14.5,56,0.00,,,0.00,WUHU216HW,2013-03-20 17:49:00,
2013-03-20 12:54:00,18.7,5.1,29.92,WNW,293,15.4,16.1,55,0.00,,,0.00,WUHU216HW,2013-03-20 17:54:00,
2013-03-20 12:59:00,18.4,4.8,29.92,West,270,7.4,16.1,55,0.00,,,0.00,WUHU216HW,2013-03-20 17:59:00,
2013-03-20 13:04:00,18.7,5.5,29.92,West,270,7.4,19.0,56,0.00,,,0.00,WUHU216HW,2013-03-20 18:04:00,
2013-03-20 13:09:00,18.9,4.9,29.92,North,0,5.4,19.0,54,0.00,,,0.00,WUHU216HW,2013-03-20 18:09:00,
2013-03-20 13:14:00,18.7,5.5,29.92,West,270,9.8,17.2,56,0.00,,,0.00,WUHU216HW,2013-03-20 18:14:00,
2013-03-20 13:19:00,19.1,5.4,29.92,NNW,338,6.0,15.0,55,0.00,,,0.00,WUHU216HW,2013-03-20 18:19:00,
2013-03-20 13:24:00,19.6,6.0,29.92,WNW,293,16.3,18.1,55,0.00,,,0.00,WUHU216HW,2013-03-20 18:24:00,
2013-03-20 13:29:00,19.8,6.1,29.92,WSW,248,11.2,18.1,55,0.00,,,0.00,WUHU216HW,2013-03-20 18:29:00,
2013-03-20 13:34:00,19.6,5.1,29.92,NNE,23,8.5,16.6,53,0.00,,,0.00,WUHU216HW,2013-03-20 18:34:00,
2013-03-20 13:39:00,19.1,5.4,29.92,West,270,8.7,15.4,55,0.00,,,0.00,WUHU216HW,2013-03-20 18:39:00,
2013-03-20 13:44:00,19.1,5.4,29.91,WNW,293,10.1,14.3,55,0.00,,,0.00,WUHU216HW,2013-03-20 18:44:00,
2013-03-20 13:49:00,19.6,6.0,29.91,WNW,293,8.7,14.3,55,0.00,,,0.00,WUHU216HW,2013-03-20 18:49:00,
2013-03-20 13:54:00,20.7,6.6,29.91,West,270,8.1,13.4,54,0.00,,,0.00,WUHU216HW,2013-03-20 18:54:00,
2013-03-20 13:59:00,21.1,7.3,29.91,WNW,293,9.8,16.1,55,0.00,,,0.00,WUHU216HW,2013-03-20 18:59:00,
2013-03-20 14:04:00,21.4,6.4,29.91,NW,315,8.3,16.1,52,0.00,,,0.00,WUHU216HW,2013-03-20 19:04:00,
2013-03-20 14:09:00,20.5,5.6,29.91,NNW,338,6.3,17.4,52,0.00,,,0.00,WUHU216HW,2013-03-20 19:09:00,
2013-03-20 14:14:00,20.5,5.9,29.90,West,270,5.4,17.4,53,0.00,,,0.00,WUHU216HW,2013-03-20 19:14:00,
2013-03-20 14:19:00,20.5,5.6,29.90,WNW,293,10.5,15.9,52,0.00,,,0.00,WUHU216HW,2013-03-20 19:19:00,
2013-03-20 14:24:00,20.5,5.9,29.90,NW,315,6.9,15.9,53,0.00,,,0.00,WUHU216HW,2013-03-20 19:24:00,
2013-03-20 14:29:00,20.9,6.0,29.90,WNW,293,12.8,17.2,52,0.00,,,0.00,WUHU216HW,2013-03-20 19:29:00,
2013-03-20 14:34:00,21.2,6.2,29.90,West,270,11.0,17.9,52,0.00,,,0.00,WUHU216HW,2013-03-20 19:34:00,
2013-03-20 14:39:00,21.2,5.9,29.90,NNW,338,4.7,18.1,51,0.00,,,0.00,WUHU216HW,2013-03-20 19:39:00,
2013-03-20 14:44:00,20.5,5.1,29.89,WNW,293,12.8,18.1,51,0.00,,,0.00,WUHU216HW,2013-03-20 19:44:00,
2013-03-20 14:49:00,20.5,5.6,29.89,WSW,248,15.7,17.9,52,0.00,,,0.00,WUHU216HW,2013-03-20 19:49:00,
2013-03-20 14:54:00,21.1,6.0,29.89,NW,315,9.2,17.9,52,0.00,,,0.00,WUHU216HW,2013-03-20 19:54:00,
2013-03-20 14:59:00,21.2,5.9,29.89,WNW,293,11.4,17.9,51,0.00,,,0.00,WUHU216HW,2013-03-20 19:59:00,
2013-03-20 15:04:00,21.1,5.7,29.89,NW,315,4.5,18.1,51,0.00,,,0.00,WUHU216HW,2013-03-20 20:04:00,
2013-03-20 15:09:00,20.9,6.0,29.89,WNW,293,8.1,18.1,52,0.00,,,0.00,WUHU216HW,2013-03-20 20:09:00,
2013-03-20 15:14:00,21.4,6.0,29.89,WSW,248,3.4,12.5,51,0.00,,,0.00,WUHU216HW,2013-03-20 20:14:00,
2013-03-20 15:19:00,21.6,5.8,29.89,NW,315,10.5,14.3,50,0.00,,,0.00,WUHU216HW,2013-03-20 20:19:00,
2013-03-20 15:24:00,21.2,6.2,29.89,WNW,293,8.5,14.3,52,0.00,,,0.00,WUHU216HW,2013-03-20 20:24:00,
2013-03-20 15:29:00,20.9,6.3,29.89,WNW,293,13.9,14.8,53,0.00,,,0.00,WUHU216HW,2013-03-20 20:29:00,
2013-03-20 15:34:00,21.2,6.2,29.89,NW,315,2.9,14.8,52,0.00,,,0.00,WUHU216HW,2013-03-20 20:34:00,
2013-03-20 15:39:00,21.6,6.6,29.89,WNW,293,4.7,13.9,52,0.00,,,0.00,WUHU216HW,2013-03-20 20:39:00,
2013-03-20 15:44:00,22.7,6.8,29.89,North,0,6.7,13.0,50,0.00,,,0.00,WUHU216HW,2013-03-20 20:44:00,
2013-03-20 15:49:00,22.5,6.7,29.89,NNW,338,4.3,12.8,50,0.00,,,0.00,WUHU216HW,2013-03-20 20:49:00,
2013-03-20 15:54:00,20.9,5.0,29.89,West,270,11.2,16.8,50,0.00,,,0.00,WUHU216HW,2013-03-20 20:54:00,
2013-03-20 15:59:00,20.3,5.4,29.89,NW,315,4.7,16.8,52,0.00,,,0.00,WUHU216HW,2013-03-20 20:59:00,
2013-03-20 16:04:00,20.0,5.0,29.89,NW,315,12.1,13.2,52,0.00,,,0.00,WUHU216HW,2013-03-20 21:04:00,
2013-03-20 16:09:00,19.8,5.3,29.89,NW,315,8.9,15.7,53,0.00,,,0.00,WUHU216HW,2013-03-20 21:09:00,
2013-03-20 16:14:00,20.2,5.7,29.89,NW,315,14.1,15.7,53,0.00,,,0.00,WUHU216HW,2013-03-20 21:14:00,
2013-03-20 16:19:00,20.5,5.6,29.89,NW,315,6.7,15.0,52,0.00,,,0.00,WUHU216HW,2013-03-20 21:19:00,
2013-03-20 16:24:00,21.1,5.7,29.89,WNW,293,4.0,15.0,51,0.00,,,0.00,WUHU216HW,2013-03-20 21:24:00,
2013-03-20 16:29:00,21.1,5.7,29.89,NW,315,7.4,11.0,51,0.00,,,0.00,WUHU216HW,2013-03-20 21:29:00,
2013-03-20 16:34:00,21.2,6.2,29.90,NNW,338,10.5,13.0,52,0.00,,,0.00,WUHU216HW,2013-03-20 21:34:00,
2013-03-20 16:39:00,21.4,6.0,29.90,NW,315,14.3,15.9,51,0.00,,,0.00,WUHU216HW,2013-03-20 21:39:00,
2013-03-20 16:44:00,21.4,5.6,29.90,WNW,293,5.4,15.9,50,0.00,,,0.00,WUHU216HW,2013-03-20 21:44:00,
2013-03-20 16:49:00,21.6,6.2,29.90,NNW,338,11.0,16.8,51,0.00,,,0.00,WUHU216HW,2013-03-20 21:49:00,
2013-03-20 16:54:00,21.2,5.9,29.90,West,270,6.9,16.8,51,0.00,,,0.00,WUHU216HW,2013-03-20 21:54:00,
2013-03-20 16:59:00,21.2,5.4,29.90,NW,315,13.6,15.4,50,0.00,,,0.00,WUHU216HW,2013-03-20 21:59:00,
2013-03-20 17:04:00,21.6,5.8,29.90,NNW,338,6.3,13.6,50,0.00,,,0.00,WUHU216HW,2013-03-20 22:04:00,
2013-03-20 17:09:00,20.9,4.6,29.90,ENE,68,7.6,14.3,49,0.00,,,0.00,WUHU216HW,2013-03-20 22:09:00,
2013-03-20 17:14:00,20.5,5.1,29.90,NW,315,2.5,14.3,51,0.00,,,0.00,WUHU216HW,2013-03-20 22:14:00,
2013-03-20 17:19:00,20.3,5.1,29.90,NW,315,9.8,18.8,51,0.00,,,0.00,WUHU216HW,2013-03-20 22:19:00,
2013-03-20 17:24:00,19.8,4.9,29.90,West,270,3.8,18.8,52,0.00,,,0.00,WUHU216HW,2013-03-20 22:24:00,
2013-03-20 17:29:00,20.2,5.2,29.90,WSW,248,11.9,15.0,52,0.00,,,0.00,WUHU216HW,2013-03-20 22:29:00,
2013-03-20 17:34:00,19.8,4.9,29.91,NW,315,9.6,12.8,52,0.00,,,0.00,WUHU216HW,2013-03-20 22:34:00,
2013-03-20 17:39:00,19.6,5.1,29.91,WNW,293,8.1,13.4,53,0.00,,,0.00,WUHU216HW,2013-03-20 22:39:00,
2013-03-20 17:44:00,19.4,5.4,29.91,NW,315,11.9,13.4,54,0.00,,,0.00,WUHU216HW,2013-03-20 22:44:00,
2013-03-20 17:49:00,19.1,5.4,29.91,NNW,338,9.6,15.4,55,0.00,,,0.00,WUHU216HW,2013-03-20 22:49:00,
2013-03-20 17:54:00,19.1,5.4,29.91,NW,315,5.1,15.4,55,0.00,,,0.00,WUHU216HW,2013-03-20 22:54:00,
2013-03-20 17:59:00,19.1,5.4,29.91,North,0,5.4,13.2,55,0.00,,,0.00,WUHU216HW,2013-03-20 22:59:00,
2013-03-20 18:04:00,19.1,5.4,29.91,NNW,338,5.1,16.3,55,0.00,,,0.00,WUHU216HW,2013-03-20 23:04:00,
2013-03-20 18:09:00,19.1,5.4,29.91,NW,315,7.8,16.3,55,0.00,,,0.00,WUHU216HW,2013-03-20 23:09:00,
2013-03-20 18:14:00,19.1,5.4,29.91,NNW,338,4.0,11.4,55,0.00,,,0.00,WUHU216HW,2013-03-20 23:14:00,
2013-03-20 18:19:00,18.7,5.5,29.91,NNW,338,8.9,13.6,56,0.00,,,0.00,WUHU216HW,2013-03-20 23:19:00,
2013-03-20 18:24:00,18.5,5.8,29.91,NNW,338,7.8,13.6,57,0.00,,,0.00,WUHU216HW,2013-03-20 23:24:00,
2013-03-20 18:29:00,18.4,5.9,29.91,West,270,4.9,12.5,58,0.00,,,0.00,WUHU216HW,2013-03-20 23:29:00,
2013-03-20 18:34:00,18.5,6.1,29.91,NW,315,5.8,12.1,58,0.00,,,0.00,WUHU216HW,2013-03-20 23:34:00,
2013-03-20 18:39:00,18.4,5.9,29.92,WNW,293,8.5,8.5,58,0.00,,,0.00,WUHU216HW,2013-03-20 23:39:00,
2013-03-20 18:44:00,18.4,5.6,29.91,WNW,293,8.5,12.8,57,0.00,,,0.00,WUHU216HW,2013-03-20 23:44:00,
2013-03-20 18:49:00,18.4,5.9,29.91,WNW,293,3.4,12.8,58,0.00,,,0.00,WUHU216HW,2013-03-20 23:49:00,
2013-03-20 18:54:00,18.2,5.9,29.91,NW,315,7.6,12.1,58,0.00,,,0.00,WUHU216HW,2013-03-20 23:54:00,
2013-03-20 18:59:00,18.0,5.7,29.91,NNW,338,7.6,10.5,58,0.00,,,0.00,WUHU216HW,2013-03-20 23:59:00,
2013-03-20 19:04:00,17.8,5.1,29.91,North,0,3.1,10.5,57,0.00,,,0.00,WUHU216HW,2013-03-21 00:04:00,
2013-03-20 19:09:00,17.6,5.0,29.91,WNW,293,3.8,7.8,57,0.00,,,0.00,WUHU216HW,2013-03-21 00:09:00,
2013-03-20 19:14:00,17.6,5.3,29.91,NW,315,8.7,12.3,58,0.00,,,0.00,WUHU216HW,2013-03-21 00:14:00,
2013-03-20 19:19:00,17.3,5.4,29.91,NW,315,4.0,12.3,59,0.00,,,0.00,WUHU216HW,2013-03-21 00:19:00,
2013-03-20 19:24:00,17.1,5.2,29.91,NW,315,5.8,13.2,59,0.00,,,0.00,WUHU216HW,2013-03-21 00:24:00,
2013-03-20 19:29:00,16.9,5.1,29.91,NNW,338,6.9,13.2,59,0.00,,,0.00,WUHU216HW,2013-03-21 00:29:00,
2013-03-20 19:34:00,16.7,4.9,29.91,NW,315,8.3,11.2,59,0.00,,,0.00,WUHU216HW,2013-03-21 00:34:00,
2013-03-20 19:39:00,16.7,4.9,29.91,WNW,293,7.6,9.6,59,0.00,,,0.00,WUHU216HW,2013-03-21 00:39:00,
2013-03-20 19:44:00,16.6,4.7,29.91,NNW,338,3.4,9.6,59,0.00,,,0.00,WUHU216HW,2013-03-21 00:44:00,
2013-03-20 19:49:00,16.4,4.9,29.91,West,270,2.5,8.9,60,0.00,,,0.00,WUHU216HW,2013-03-21 00:49:00,
2013-03-20 19:54:00,16.2,4.7,29.91,NW,315,7.8,8.9,60,0.00,,,0.00,WUHU216HW,2013-03-21 00:54:00,
2013-03-20 19:59:00,16.0,4.5,29.91,NW,315,4.0,10.1,60,0.00,,,0.00,WUHU216HW,2013-03-21 00:59:00,
2013-03-20 20:04:00,16.0,4.5,29.92,WNW,293,4.0,10.1,60,0.00,,,0.00,WUHU216HW,2013-03-21 01:04:00,
2013-03-20 20:09:00,15.8,4.3,29.92,NW,315,4.0,9.6,60,0.00,,,0.00,WUHU216HW,2013-03-21 01:09:00,
2013-03-20 20:14:00,15.7,4.1,29.92,WNW,293,5.8,8.9,60,0.00,,,0.00,WUHU216HW,2013-03-21 01:14:00,
2013-03-20 20:19:00,15.5,4.0,29.92,WNW,293,4.5,8.9,60,0.00,,,0.00,WUHU216HW,2013-03-21 01:19:00,
2013-03-20 20:24:00,15.5,4.3,29.93,NNW,338,1.8,6.5,61,0.00,,,0.00,WUHU216HW,2013-03-21 01:24:00,
2013-03-20 20:29:00,15.3,4.1,29.92,NW,315,2.0,7.6,61,0.00,,,0.00,WUHU216HW,2013-03-21 01:29:00,
2013-03-20 20:34:00,15.1,4.1,29.93,NW,315,5.8,7.6,61,0.00,,,0.00,WUHU216HW,2013-03-21 01:34:00,
2013-03-20 20:39:00,15.1,3.7,29.92,NNW,338,4.0,9.4,60,0.00,,,0.00,WUHU216HW,2013-03-21 01:39:00,
2013-03-20 20:44:00,14.9,3.9,29.92,NW,315,4.7,9.4,61,0.00,,,0.00,WUHU216HW,2013-03-21 01:44:00,
2013-03-20 20:49:00,14.9,3.9,29.92,NW,315,4.0,10.3,61,0.00,,,0.00,WUHU216HW,2013-03-21 01:49:00,
2013-03-20 20:54:00,14.8,3.7,29.93,NW,315,5.6,10.3,61,0.00,,,0.00,WUHU216HW,2013-03-21 01:54:00,
2013-03-20 20:59:00,14.8,4.1,29.92,North,0,3.4,7.6,62,0.00,,,0.00,WUHU216HW,2013-03-21 01:59:00,
2013-03-20 21:04:00,14.8,4.1,29.93,North,0,1.3,9.4,62,0.00,,,0.00,WUHU216HW,2013-03-21 02:04:00,
2013-03-20 21:09:00,14.6,3.9,29.93,NNW,338,3.4,9.4,62,0.00,,,0.00,WUHU216HW,2013-03-21 02:09:00,
2013-03-20 21:14:00,14.4,3.7,29.93,NW,315,4.5,6.9,62,0.00,,,0.00,WUHU216HW,2013-03-21 02:14:00,
2013-03-20 21:19:00,14.0,3.7,29.93,NW,315,3.4,6.0,63,0.00,,,0.00,WUHU216HW,2013-03-21 02:19:00,
2013-03-20 21:24:00,14.0,3.7,29.93,WNW,293,2.9,9.2,63,0.00,,,0.00,WUHU216HW,2013-03-21 02:24:00,
2013-03-20 21:29:00,14.0,3.7,29.93,WNW,293,4.0,9.2,63,0.00,,,0.00,WUHU216HW,2013-03-21 02:29:00,
2013-03-20 21:34:00,13.9,3.9,29.93,NNW,338,3.6,5.4,64,0.00,,,0.00,WUHU216HW,2013-03-21 02:34:00,
2013-03-20 21:39:00,13.5,3.5,29.93,NW,315,5.4,5.4,64,0.00,,,0.00,WUHU216HW,2013-03-21 02:39:00,
2013-03-20 21:44:00,13.3,3.3,29.93,NW,315,2.0,5.6,64,0.00,,,0.00,WUHU216HW,2013-03-21 02:44:00,
2013-03-20 21:49:00,13.3,3.3,29.93,NW,315,4.5,6.9,64,0.00,,,0.00,WUHU216HW,2013-03-21 02:49:00,
2013-03-20 21:54:00,13.3,3.3,29.93,NW,315,1.3,6.9,64,0.00,,,0.00,WUHU216HW,2013-03-21 02:54:00,
2013-03-20 21:59:00,13.3,3.3,29.93,WNW,293,3.4,6.5,64,0.00,,,0.00,WUHU216HW,2013-03-21 02:59:00,
2013-03-20 22:04:00,13.1,3.5,29.93,NW,315,4.7,6.5,65,0.00,,,0.00,WUHU216HW,2013-03-21 03:04:00,
2013-03-20 22:09:00,13.0,3.3,29.93,NNW,338,2.0,6.3,65,0.00,,,0.00,WUHU216HW,2013-03-21 03:09:00,
2013-03-20 22:14:00,13.0,3.0,29.94,NNW,338,2.7,6.3,64,0.00,,,0.00,WUHU216HW,2013-03-21 03:14:00,
2013-03-20 22:19:00,12.8,2.8,29.94,WNW,293,4.7,5.8,64,0.00,,,0.00,WUHU216HW,2013-03-21 03:19:00,
2013-03-20 22:24:00,12.6,3.0,29.94,WNW,293,2.0,5.8,65,0.00,,,0.00,WUHU216HW,2013-03-21 03:24:00,
2013-03-20 22:28:00,12.6,3.0,29.94,WNW,293,4.3,7.2,65,0.00,,,0.00,WUHU216HW,2013-03-21 03:28:00,
2013-03-20 22:33:00,12.6,3.0,29.94,NW,315,2.9,7.2,65,0.00,,,0.00,WUHU216HW,2013-03-21 03:33:00,
2013-03-20 22:38:00,12.6,3.0,29.94,WNW,293,2.5,5.8,65,0.00,,,0.00,WUHU216HW,2013-03-21 03:38:00,
2013-03-20 22:43:00,12.4,2.8,29.94,West,270,4.3,5.8,65,0.00,,,0.00,WUHU216HW,2013-03-21 03:43:00,
2013-03-20 22:48:00,12.2,2.6,29.93,NNW,338,3.4,4.9,65,0.00,,,0.00,WUHU216HW,2013-03-21 03:48:00,
2013-03-20 22:54:00,12.4,2.8,29.93,NW,315,4.5,6.3,65,0.00,,,0.00,WUHU216HW,2013-03-21 03:54:00,
2013-03-20 22:58:00,12.2,2.6,29.93,NW,315,4.5,6.3,65,0.00,,,0.00,WUHU216HW,2013-03-21 03:58:00,
2013-03-20 23:00:00,12.2,2.6,29.93,NNW,338,3.6,6.3,65,0.00,,,0.00,WUHU216HW,2013-03-21 04:00:00,
2013-03-20 23:05:00,12.4,2.8,29.93,WNW,293,3.1,8.9,65,0.00,,,0.00,WUHU216HW,2013-03-21 04:05:00,
2013-03-20 23:10:00,12.2,2.6,29.93,West,270,2.5,8.9,65,0.00,,,0.00,WUHU216HW,2013-03-21 04:10:00,
2013-03-20 23:15:00,11.9,2.3,29.93,WNW,293,2.7,5.6,65,0.00,,,0.00,WUHU216HW,2013-03-21 04:15:00,
2013-03-20 23:20:00,11.9,2.3,29.93,WNW,293,3.1,6.3,65,0.00,,,0.00,WUHU216HW,2013-03-21 04:20:00,
2013-03-20 23:25:00,11.7,2.4,29.93,NW,315,4.7,6.7,66,0.00,,,0.00,WUHU216HW,2013-03-21 04:25:00,
2013-03-20 23:30:00,11.7,2.4,29.93,NW,315,7.4,7.4,66,0.00,,,0.00,WUHU216HW,2013-03-21 04:30:00,
2013-03-20 23:35:00,11.9,2.3,29.93,WNW,293,6.3,7.8,65,0.00,,,0.00,WUHU216HW,2013-03-21 04:35:00,
2013-03-20 23:40:00,11.9,2.3,29.93,NW,315,3.6,7.8,65,0.00,,,0.00,WUHU216HW,2013-03-21 04:40:00,
2013-03-20 23:45:00,11.9,2.3,29.92,WNW,293,4.5,6.9,65,0.00,,,0.00,WUHU216HW,2013-03-21 04:45:00,
2013-03-20 23:50:00,11.7,2.1,29.92,West,270,4.0,7.6,65,0.00,,,0.00,WUHU216HW,2013-03-21 04:50:00,
2013-03-20 23:55:00,11.7,2.4,29.92,WNW,293,5.4,8.1,66,0.00,,,0.00,WUHU216HW,2013-03-21 04:55:00,